| time (UTC) | temp F | wind direction | speed MPH | gust MPH | rain 1hr in | rain 24hr in | rain mn in | humidity % | barometer mb |
| 20260510230455 | 56 | 342 | 5.0 | 15.0 | 0.00 | 0.00 | 0.00 | 41 | 1020.1 |
| 20260510225455 | 56 | 263 | 6.0 | 9.0 | 0.00 | 0.00 | 0.00 | 42 | 1019.7 |
| 20260510224453 | 57 | 293 | 5.0 | 11.0 | 0.00 | 0.00 | 0.00 | 41 | 1019.8 |
| 20260510223453 | 57 | 243 | 7.0 | 9.0 | 0.00 | 0.00 | 0.00 | 42 | 1019.8 |
| 20260510222448 | 57 | 276 | 4.0 | 8.0 | 0.00 | 0.00 | 0.00 | 43 | 1019.7 |
| 20260510221445 | 57 | 281 | 4.0 | 6.0 | 0.00 | 0.00 | 0.00 | 42 | 1019.7 |
| 20260510220443 | 59 | 346 | 3.0 | 9.0 | 0.00 | 0.00 | 0.00 | 42 | 1019.7 |
| 20260510215444 | 57 | 297 | 3.0 | 9.0 | 0.00 | 0.00 | 0.00 | 46 | 1019.7 |
| 20260510214438 | 56 | 248 | 3.0 | 10.0 | 0.00 | 0.00 | 0.00 | 46 | 1019.6 |
| 20260510213437 | 57 | 248 | 3.0 | 8.0 | 0.00 | 0.00 | 0.00 | 46 | 1019.4 |
| 20260510212437 | 57 | 319 | 7.0 | 12.0 | 0.00 | 0.00 | 0.00 | 44 | 1019.1 |
| 20260510211437 | 56 | 303 | 3.0 | 11.0 | 0.00 | 0.00 | 0.00 | 46 | 1019.0 |
| 20260510210432 | 57 | 265 | 10.0 | 12.0 | 0.00 | 0.00 | 0.00 | 44 | 1018.9 |
| 20260510205433 | 57 | 298 | 4.0 | 10.0 | 0.00 | 0.00 | 0.00 | 46 | 1018.9 |
| 20260510204432 | 59 | 238 | 3.0 | 10.0 | 0.00 | 0.00 | 0.00 | 45 | 1019.1 |
| 20260510203426 | 58 | 285 | 6.0 | 13.0 | 0.00 | 0.00 | 0.00 | 43 | 1018.9 |
| 20260510202421 | 57 | 233 | 4.0 | 9.0 | 0.00 | 0.00 | 0.00 | 44 | 1018.8 |
| 20260510201421 | 57 | 146 | 3.0 | 9.0 | 0.00 | 0.00 | 0.00 | 45 | 1019.0 |
| 20260510200418 | 56 | 340 | 5.0 | 14.0 | 0.00 | 0.00 | 0.00 | 46 | 1019.0 |
| 20260510195415 | 56 | 200 | 5.0 | 12.0 | 0.00 | 0.00 | 0.00 | 43 | 1019.0 |
| 20260510194412 | 56 | 248 | 4.0 | 11.0 | 0.00 | 0.00 | 0.00 | 45 | 1019.2 |
| 20260510193409 | 56 | 276 | 5.0 | 12.0 | 0.00 | 0.00 | 0.00 | 44 | 1019.1 |
| 20260510192406 | 56 | 294 | 6.0 | 11.0 | 0.00 | 0.00 | 0.00 | 43 | 1019.1 |
| 20260510191404 | 57 | 307 | 2.0 | 7.0 | 0.00 | 0.00 | 0.00 | 44 | 1019.2 |
| 20260510190359 | 57 | 226 | 5.0 | 9.0 | 0.00 | 0.00 | 0.00 | 44 | 1019.2 |
| 20260510185359 | 56 | 308 | 4.0 | 10.0 | 0.00 | 0.00 | 0.00 | 45 | 1019.3 |
| 20260510184358 | 56 | 341 | 9.0 | 9.0 | 0.00 | 0.00 | 0.00 | 43 | 1019.1 |
| 20260510183354 | 56 | 82 | 2.0 | 8.0 | 0.00 | 0.00 | 0.00 | 46 | 1018.9 |
| 20260510182351 | 56 | 270 | 7.0 | 9.0 | 0.00 | 0.00 | 0.00 | 44 | 1018.8 |
| 20260510181351 | 56 | 241 | 5.0 | 7.0 | 0.00 | 0.00 | 0.00 | 45 | 1018.8 |
| 20260510180350 | 56 | 317 | 3.0 | 9.0 | 0.00 | 0.00 | 0.00 | 45 | 1018.9 |
| 20260510175348 | 56 | 273 | 4.0 | 13.0 | 0.00 | 0.00 | 0.00 | 42 | 1018.5 |
| 20260510174348 | 56 | 272 | 6.0 | 6.0 | 0.00 | 0.00 | 0.00 | 43 | 1018.7 |
| 20260510173346 | 55 | 309 | 3.0 | 8.0 | 0.00 | 0.00 | 0.00 | 43 | 1018.6 |
| 20260510172344 | 55 | 290 | 8.0 | 13.0 | 0.00 | 0.00 | 0.00 | 41 | 1019.0 |
| 20260510171344 | 57 | 201 | 3.0 | 8.0 | 0.00 | 0.00 | 0.00 | 46 | 1018.8 |
| 20260510170342 | 55 | 230 | 8.0 | 8.0 | 0.00 | 0.00 | 0.00 | 48 | 1018.9 |
| 20260510165340 | 56 | 321 | 6.0 | 14.0 | 0.00 | 0.00 | 0.00 | 44 | 1018.8 |
| 20260510164335 | 55 | 326 | 3.0 | 12.0 | 0.00 | 0.00 | 0.00 | 46 | 1018.9 |
| 20260510163331 | 56 | 283 | 6.0 | 10.0 | 0.00 | 0.00 | 0.00 | 46 | 1019.0 |
| 20260510162329 | 56 | 263 | 9.0 | 9.0 | 0.00 | 0.00 | 0.00 | 49 | 1018.8 |
| 20260510161326 | 55 | 48 | 2.0 | 6.0 | 0.00 | 0.00 | 0.00 | 49 | 1019.1 |
| 20260510160326 | 55 | 326 | 7.0 | 13.0 | 0.00 | 0.00 | 0.00 | 45 | 1019.1 |
| 20260510155323 | 54 | 238 | 5.0 | 11.0 | 0.00 | 0.00 | 0.00 | 48 | 1019.0 |
| 20260510154321 | 55 | 267 | 3.0 | 6.0 | 0.00 | 0.00 | 0.00 | 52 | 1018.8 |
| 20260510153318 | 55 | 279 | 9.0 | 9.0 | 0.00 | 0.00 | 0.00 | 50 | 1018.7 |
| 20260510152317 | 52 | 332 | 5.0 | 12.0 | 0.00 | 0.00 | 0.00 | 46 | 1018.9 |
| 20260510151312 | 53 | 327 | 8.0 | 9.0 | 0.00 | 0.00 | 0.00 | 49 | 1018.7 |
| 20260510150309 | 52 | 267 | 6.0 | 10.0 | 0.00 | 0.00 | 0.00 | 49 | 1018.9 |
| 20260510145308 | 53 | 306 | 5.0 | 6.0 | 0.00 | 0.00 | 0.00 | 51 | 1018.5 |
| 20260510144307 | 53 | 247 | 5.0 | 8.0 | 0.00 | 0.00 | 0.00 | 55 | 1018.4 |
| 20260510143303 | 52 | 310 | 2.0 | 10.0 | 0.00 | 0.00 | 0.00 | 56 | 1018.7 |
| 20260510142305 | 51 | 296 | 3.0 | 10.0 | 0.00 | 0.00 | 0.00 | 52 | 1018.1 |
| 20260510141257 | 51 | 245 | 5.0 | 11.0 | 0.00 | 0.00 | 0.00 | 52 | 1018.6 |
| 20260510140256 | 51 | 230 | 4.0 | 9.0 | 0.00 | 0.00 | 0.00 | 55 | 1018.4 |
| 20260510135251 | 51 | 249 | 4.0 | 8.0 | 0.00 | 0.00 | 0.00 | 57 | 1018.4 |
| 20260510134246 | 51 | 247 | 4.0 | 7.0 | 0.00 | 0.00 | 0.00 | 59 | 1018.4 |
| 20260510133244 | 50 | 334 | 6.0 | 8.0 | 0.00 | 0.00 | 0.00 | 55 | 1018.5 |
| 20260510132244 | 50 | 226 | 3.0 | 11.0 | 0.00 | 0.00 | 0.00 | 58 | 1018.5 |
| 20260510131238 | 50 | 277 | 3.0 | 5.0 | 0.00 | 0.00 | 0.00 | 58 | 1018.4 |
| 20260510130237 | 48 | 248 | 3.0 | 6.0 | 0.00 | 0.00 | 0.00 | 59 | 1018.2 |
| 20260510125235 | 48 | 244 | 5.0 | 6.0 | 0.00 | 0.00 | 0.00 | 63 | 1018.0 |
| 20260510124230 | 47 | 260 | 5.0 | 5.0 | 0.00 | 0.00 | 0.00 | 65 | 1018.3 |
| 20260510123227 | 46 | 285 | 3.0 | 6.0 | 0.00 | 0.00 | 0.00 | 67 | 1018.0 |
| 20260510122226 | 46 | 285 | 3.0 | 4.0 | 0.00 | 0.00 | 0.00 | 69 | 1017.9 |
| 20260510121226 | 45 | 357 | 2.0 | 3.0 | 0.00 | 0.00 | 0.00 | 71 | 1017.5 |
| 20260510120225 | 44 | 273 | 3.0 | 3.0 | 0.00 | 0.00 | 0.00 | 71 | 1017.7 |
| 20260510115225 | 44 | 270 | 0.0 | 3.0 | 0.00 | 0.00 | 0.00 | 73 | 1017.8 |
| 20260510114224 | 42 | 210 | 0.0 | 4.0 | 0.00 | 0.00 | 0.00 | 76 | 1017.6 |
| 20260510113222 | 41 | 270 | 0.0 | 2.0 | 0.00 | 0.00 | 0.00 | 78 | 1017.3 |
| 20260510112221 | 41 | 221 | 0.0 | 2.0 | 0.00 | 0.00 | 0.00 | 79 | 1017.2 |
| 20260510111220 | 39 | 195 | 0.0 | 0.0 | 0.00 | 0.00 | 0.00 | 87 | 1016.9 |
| 20260510110218 | 36 | 195 | 0.0 | 1.0 | 0.00 | 0.00 | 0.00 | 93 | 1016.9 |
| 20260510105217 | 33 | 194 | 0.0 | 0.0 | 0.00 | 0.00 | 0.00 | 94 | 1016.6 |
| 20260510104217 | 32 | 194 | 0.0 | 0.0 | 0.00 | 0.00 | 0.00 | 94 | 1016.3 |
| 20260510103217 | 32 | 195 | 0.0 | 0.0 | 0.00 | 0.00 | 0.00 | 94 | 1016.3 |
| 20260510102212 | 32 | 195 | 0.0 | 0.0 | 0.00 | 0.00 | 0.00 | 93 | 1016.2 |
| 20260510101209 | 31 | 195 | 0.0 | 0.0 | 0.00 | 0.00 | 0.00 | 92 | 1015.9 |
| 20260510100208 | 33 | 203 | 0.0 | 1.0 | 0.00 | 0.00 | 0.00 | 92 | 1015.8 |
| 20260510095205 | 32 | 123 | 0.0 | 0.0 | 0.00 | 0.00 | 0.00 | 90 | 1015.9 |
| 20260510094159 | 32 | 165 | 0.0 | 0.0 | 0.00 | 0.00 | 0.00 | 89 | 1015.8 |
| 20260510093158 | 34 | 203 | 0.0 | 0.0 | 0.00 | 0.00 | 0.00 | 88 | 1015.7 |
| 20260510092156 | 35 | 203 | 0.0 | 0.0 | 0.00 | 0.00 | 0.00 | 86 | 1015.8 |
| 20260510091154 | 36 | 243 | 0.0 | 0.0 | 0.00 | 0.00 | 0.00 | 85 | 1015.6 |
| 20260510090154 | 37 | 243 | 0.0 | 0.0 | 0.00 | 0.00 | 0.00 | 83 | 1015.6 |
| 20260510085150 | 38 | 243 | 0.0 | 0.0 | 0.00 | 0.00 | 0.00 | 81 | 1015.4 |
| 20260510084148 | 39 | 243 | 0.0 | 0.0 | 0.00 | 0.00 | 0.00 | 79 | 1015.3 |
| 20260510083148 | 39 | 240 | 0.0 | 1.0 | 0.00 | 0.00 | 0.00 | 78 | 1015.2 |
| 20260510082146 | 41 | 15 | 0.0 | 0.0 | 0.00 | 0.00 | 0.00 | 75 | 1015.0 |
| 20260510081143 | 41 | 291 | 0.0 | 1.0 | 0.00 | 0.00 | 0.00 | 73 | 1014.8 |
| 20260510080139 | 42 | 306 | 0.0 | 1.0 | 0.00 | 0.00 | 0.00 | 72 | 1015.0 |
| 20260510075134 | 42 | 26 | 0.0 | 3.0 | 0.00 | 0.00 | 0.00 | 71 | 1014.6 |
| 20260510074132 | 42 | 249 | 0.0 | 3.0 | 0.00 | 0.00 | 0.00 | 71 | 1014.5 |
| 20260510073131 | 43 | 234 | 0.0 | 3.0 | 0.00 | 0.00 | 0.00 | 71 | 1014.4 |
| 20260510072130 | 42 | 255 | 0.0 | 0.0 | 0.00 | 0.00 | 0.00 | 72 | 1014.3 |
| 20260510071129 | 43 | 255 | 0.0 | 2.0 | 0.00 | 0.00 | 0.00 | 70 | 1013.9 |
| 20260510070124 | 44 | 294 | 0.0 | 2.0 | 0.00 | 0.00 | 0.00 | 68 | 1014.0 |
| 20260510065122 | 44 | 303 | 0.0 | 3.0 | 0.00 | 0.00 | 0.00 | 67 | 1013.7 |
| 20260510064121 | 43 | 289 | 0.0 | 2.0 | 0.00 | 0.00 | 0.00 | 68 | 1014.0 |
| 20260510063120 | 43 | 331 | 0.0 | 2.0 | 0.00 | 0.00 | 0.00 | 68 | 1013.9 |
| 20260510062118 | 43 | 304 | 2.0 | 4.0 | 0.00 | 0.00 | 0.00 | 67 | 1013.7 |
| 20260510061117 | 43 | 0 | 1.0 | 3.0 | 0.00 | 0.00 | 0.00 | 66 | 1013.4 |
| 20260510060116 | 43 | 0 | 0.0 | 2.0 | 0.00 | 0.00 | 0.00 | 65 | 1013.7 |
| 20260510055116 | 44 | 353 | 1.0 | 3.0 | 0.00 | 0.00 | 0.00 | 63 | 1013.5 |
| 20260510054112 | 45 | 323 | 3.0 | 5.0 | 0.00 | 0.00 | 0.00 | 61 | 1013.4 |
| 20260510053109 | 45 | 345 | 0.0 | 3.0 | 0.00 | 0.00 | 0.00 | 60 | 1013.1 |
| 20260510052108 | 46 | 358 | 3.0 | 9.0 | 0.00 | 0.00 | 0.00 | 58 | 1012.8 |
| 20260510051106 | 46 | 348 | 3.0 | 11.0 | 0.00 | 0.00 | 0.00 | 57 | 1012.8 |
| 20260510050106 | 47 | 296 | 5.0 | 7.0 | 0.00 | 0.00 | 0.00 | 58 | 1012.6 |
| 20260510045105 | 47 | 337 | 2.0 | 7.0 | 0.00 | 0.00 | 0.00 | 59 | 1012.3 |
| 20260510044104 | 47 | 315 | 4.0 | 4.0 | 0.00 | 0.00 | 0.00 | 59 | 1012.1 |
| 20260510043102 | 47 | 349 | 1.0 | 7.0 | 0.00 | 0.00 | 0.00 | 59 | 1011.8 |
| 20260510042102 | 48 | 8 | 2.0 | 4.0 | 0.00 | 0.00 | 0.00 | 57 | 1012.0 |
| 20260510041102 | 49 | 344 | 3.0 | 8.0 | 0.00 | 0.00 | 0.00 | 56 | 1011.5 |
| 20260510035057 | 50 | 292 | 7.0 | 10.0 | 0.00 | 0.01 | 0.01 | 57 | 1011.0 |
| 20260510034052 | 51 | 328 | 5.0 | 9.0 | 0.00 | 0.01 | 0.01 | 56 | 1011.0 |
| 20260510033052 | 51 | 341 | 5.0 | 9.0 | 0.00 | 0.01 | 0.01 | 57 | 1010.7 |
| 20260510032050 | 51 | 317 | 5.0 | 5.0 | 0.00 | 0.01 | 0.01 | 58 | 1010.4 |
| 20260510031046 | 51 | 347 | 6.0 | 7.0 | 0.00 | 0.01 | 0.01 | 59 | 1010.3 |
| 20260510030045 | 51 | 61 | 3.0 | 11.0 | 0.00 | 0.01 | 0.01 | 59 | 1010.0 |
| 20260510025045 | 51 | 342 | 1.0 | 3.0 | 0.00 | 0.01 | 0.01 | 62 | 1009.8 |
| 20260510024044 | 51 | 0 | 0.0 | 2.0 | 0.00 | 0.01 | 0.01 | 64 | 1009.7 |
| 20260510023044 | 49 | 8 | 0.0 | 2.0 | 0.00 | 0.01 | 0.01 | 68 | 1009.5 |
| 20260510022043 | 50 | 294 | 0.0 | 2.0 | 0.00 | 0.01 | 0.01 | 67 | 1009.2 |
| 20260510021044 | 51 | 270 | 0.0 | 0.0 | 0.00 | 0.01 | 0.01 | 64 | 1009.3 |
| 20260510020040 | 53 | 312 | 2.0 | 2.0 | 0.00 | 0.01 | 0.01 | 60 | 1008.8 |
| 20260510015037 | 54 | 327 | 2.0 | 4.0 | 0.00 | 0.01 | 0.01 | 59 | 1008.9 |
| 20260510014037 | 54 | 294 | 1.0 | 3.0 | 0.00 | 0.01 | 0.01 | 58 | 1008.5 |
| 20260510013033 | 55 | 0 | 2.0 | 4.0 | 0.00 | 0.01 | 0.01 | 58 | 1008.0 |
| 20260510012030 | 56 | 288 | 2.0 | 3.0 | 0.00 | 0.01 | 0.01 | 57 | 1007.9 |
| 20260510011026 | 57 | 317 | 3.0 | 7.0 | 0.00 | 0.01 | 0.01 | 55 | 1007.7 |
| 20260510010026 | 57 | 337 | 6.0 | 8.0 | 0.00 | 0.01 | 0.01 | 54 | 1007.2 |
| 20260510005025 | 57 | 334 | 3.0 | 7.0 | 0.00 | 0.01 | 0.01 | 53 | 1007.0 |
| 20260510004020 | 58 | 336 | 9.0 | 9.0 | 0.00 | 0.01 | 0.01 | 52 | 1007.0 |
| 20260510003018 | 59 | 333 | 4.0 | 16.0 | 0.00 | 0.01 | 0.01 | 52 | 1006.5 |
| 20260510002017 | 59 | 331 | 6.0 | 13.0 | 0.00 | 0.01 | 0.01 | 53 | 1006.2 |
| 20260510001012 | 59 | 333 | 12.0 | 18.0 | 0.00 | 0.01 | 0.01 | 53 | 1006.4 |
| 20260510000009 | 60 | 342 | 9.0 | 17.0 | 0.00 | 0.01 | 0.01 | 52 | 1005.8 |
| 20260509235009 | 60 | 285 | 4.0 | 12.0 | 0.00 | 0.01 | 0.01 | 52 | 1005.7 |
| 20260509234003 | 60 | 335 | 4.0 | 16.0 | 0.00 | 0.01 | 0.01 | 51 | 1005.6 |
| 20260509233002 | 60 | 274 | 9.0 | 16.0 | 0.00 | 0.01 | 0.01 | 50 | 1005.1 |
| 20260509232002 | 61 | 338 | 3.0 | 15.0 | 0.00 | 0.01 | 0.01 | 50 | 1004.8 |
| 20260509230956 | 62 | 339 | 5.0 | 17.0 | 0.00 | 0.01 | 0.01 | 48 | 1004.7 |